This is the latest recevied weather packets stored in our database for station/object KB1RMA-4. If no packets are shown the sender has not sent any weather packets the latest 10 day(s).
| Time | Temp. | Humidity | Pressure | Rain* | Wind** | Luminosity | Snow |
|---|---|---|---|---|---|---|---|
| 1787434342 | 19.44° C | 80% | 1017.3 hPa | 0 mm | - | 69 W/m² | - |
| 1787434038 | 20° C | 80% | 1017 hPa | 0 mm | - | 76 W/m² | - |
| 1787433737 | 20° C | 81% | 1017.1 hPa | 0 mm | - | 83 W/m² | - |
| 1787433433 | 20° C | 80% | 1017.2 hPa | 0 mm | - | 95 W/m² | - |
| 1787433129 | 20° C | 80% | 1017.2 hPa | 0 mm | - | 115 W/m² | - |
| 1787432826 | 20° C | 80% | 1017.4 hPa | 0 mm | - | 132 W/m² | - |
| 1787432521 | 20° C | 79% | 1017.2 hPa | 0 mm | - | 144 W/m² | - |
| 1787432214 | 20.56° C | 79% | 1017.2 hPa | 0 mm | - | 128 W/m² | - |
| 1787431914 | 20.56° C | 78% | 1017.5 hPa | 0 mm | - | 95 W/m² | - |
| 1787431609 | 20.56° C | 78% | 1017.1 hPa | 0 mm | - | 122 W/m² | - |
| 1787431305 | 20.56° C | 78% | 1017.2 hPa | 0 mm | - | 148 W/m² | - |
| 1787431002 | 20.56° C | 78% | 1017.2 hPa | 0 mm | - | 120 W/m² | - |
| 1787430697 | 20.56° C | 78% | 1017.2 hPa | 0 mm | - | 125 W/m² | - |
| 1787430393 | 20.56° C | 78% | 1017.2 hPa | 0 mm | - | 175 W/m² | - |
| 1787430090 | 20.56° C | 79% | 1017.2 hPa | 0 mm | - | 145 W/m² | - |
| 1787429785 | 20.56° C | 79% | 1017.4 hPa | 0 mm | - | 150 W/m² | - |
| 1787429485 | 20.56° C | 80% | 1017.3 hPa | 0 mm | - | 132 W/m² | - |
| 1787429181 | 20° C | 80% | 1017.6 hPa | 0 mm | - | 143 W/m² | - |
| 1787428877 | 20° C | 80% | 1017.7 hPa | 0 mm | - | 113 W/m² | - |
| 1787428573 | 20° C | 80% | 1017.8 hPa | 0 mm | - | 101 W/m² | - |
| 1787428272 | 20° C | 80% | 1017.7 hPa | 0 mm | - | 98 W/m² | - |
| 1787427967 | 20° C | 80% | 1017.8 hPa | 0 mm | - | 99 W/m² | - |
| 1787427663 | 20° C | 80% | 1017.7 hPa | 0 mm | - | 94 W/m² | - |
| 1787427358 | 20° C | 80% | 1017.8 hPa | 0 mm | - | 113 W/m² | - |
| 1787427054 | 20° C | 81% | 1017.6 hPa | 0 mm | - | 108 W/m² | - |
* Rain latest hour (hover to see other rain measurements)
** Current wind speed in m/s (hover to see current wind gust speed)